Location: Columbia
(38.9520°N, 92.3340°W)
Time: 03:25:41
(UTC-05:00)

Iridium 15 - Visible Passes

Search period start: 02 October 2014 00:00
Search period end: 12 October 2014 00:00
Orbit: 776 x 779 km, 86.4° (Epoch: 01 October)

Date Brightness Start Highest point End Pass type
(mag) Time Alt. Az. Time Alt. Az. Time Alt. Az.
02 Oct 7.8 04:44:43 10° SE 04:49:13 31° E 04:53:43 10° NNE visible
02 Oct 6.9 06:25:27 10° SW 06:29:52 28° W 06:34:19 10° NNW visible
03 Oct 8.7 04:12:47 10° ESE 04:15:58 17° E 04:19:10 10° NE visible
03 Oct 6.1 05:51:08 10° SSW 05:56:11 52° W 06:01:16 10° N visible
04 Oct 6.0 05:17:26 10° S 05:22:38 84° E 05:27:52 10° N visible
05 Oct 7.1 04:44:17 10° SSE 04:49:12 44° E 04:54:08 10° NNE visible
05 Oct 7.3 06:26:25 10° WSW 06:30:07 19° WNW 06:33:50 10° NNW visible
06 Oct 8.1 04:11:47 10° SE 04:15:53 24° E 04:19:59 10° NNE visible
06 Oct 6.6 05:51:43 10° SSW 05:56:21 35° W 06:01:08 10° NNW visible
07 Oct 8.9 03:40:27 10° ESE 03:42:41 13° ENE 03:44:55 10° NE visible
07 Oct 5.9 05:20:06 29° SSW 05:22:43 67° W 05:27:55 10° N visible
08 Oct 6.3 04:48:02 50° SE 04:49:13 66° E 04:54:23 10° N visible
08 Oct 7.7 06:28:35 11° W 06:30:25 13° WNW 06:32:53 10° NW visible
09 Oct 7.4 04:15:43 35° E 04:15:50 35° E 04:20:30 10° NNE visible
09 Oct 7.0 05:56:15 24° W 05:56:34 25° W 06:00:48 10° NNW visible
10 Oct 8.4 03:43:14 19° ENE 03:43:14 19° ENE 03:46:07 10° NE visible
10 Oct 6.5 05:23:45 41° NW 05:23:45 41° NW 05:27:51 10° N visible
11 Oct 6.8 04:51:08 41° N 04:51:08 41° N 04:54:31 10° N visible
